Regional Weather Roundup
Issued by NWS

Home | Current Version | Previous Version | Graphics & Text | Print | Product List | Glossary On
Versions: 1 2 3 4 5 6 7 8 9 10 11 12 13 14 15 16 17 18 19 20 21 22 23 24 25 26 27 28 29 30 31 32 33 34 35 36 37 38 39 40 41 42 43 44 45 46 47 48 49 50
000
ASUS43 KLSX 210859
RWRMO

WEATHER SUMMARY FOR MISSOURI
NATIONAL WEATHER SERVICE SPRINGFIELD MO
300 AM CST SUN DEC 21 2014

NOTE: "FAIR" INDICATES FEW OR NO CLOUDS BELOW 12,000 FEET WITH NO
       SIGNIFICANT WEATHER AND/OR OBSTRUCTIONS TO VISIBILITY.
       CURRENT SKY AND/OR WEATHER CONDITIONS ARE NOT AVAILABLE FOR
       CHILLICOTHE AND FARMINGTON.

MOZ001>031-035>038-043-044-053-054-211000-
...NORTHERN AND WESTERN MISSOURI...

CITY           SKY/WX    TMP DP  RH WIND       PRES   REMARKS
KANSAS CTY INT PTCLDY    35  32  88 S8        30.09R FOG     WCI  29
KANSAS C DTWN  MOCLDY    36  32  85 S7        30.10S
LEE`S SUMMIT   MOCLDY    36  33  89 SW7       30.10S
ST JOSEPH      MOCLDY    33  31  92 S8        30.09S WCI  26
CHILLICOTHE      N/A     37  33  85 S5        30.13S
KIRKSVILLE     CLOUDY    38  36  92 S10       30.14S

$$
MOZ066>068-077>081-088>096-101>105-211000-
...SOUTHWEST MISSOURI...

CITY           SKY/WX    TMP DP  RH WIND       PRES   REMARKS
SPRINGFIELD    CLOUDY    41  35  79 SE9       30.13F
JOPLIN         CLOUDY    43  38  82 S9        30.12F

$$
MOZ032>034-039>042-045>050-055>058-069>072-211000-
...CENTRAL MISSOURI...

CITY           SKY/WX    TMP DP  RH WIND       PRES   REMARKS
COLUMBIA       CLOUDY    40  35  83 SE6       30.14F
JEFFERSON CITY CLOUDY    42  35  76 E5        30.16F
ROLLA          CLOUDY    39  33  79 SE9       30.14F
SEDALIA        CLOUDY    42  35  76 SW6       30.13S
WARRENSBURG    CLOUDY    39  34  81 S8        30.11F
OSAGE BEACH    CLOUDY    43  34  70 S7        30.14F

$$
MOZ051-052-059>065-211000-
...EAST CENTRAL MISSOURI...

CITY           SKY/WX    TMP DP  RH WIND       PRES   REMARKS
ST LOUIS INTL  CLOUDY    42  33  70 SE8       30.22F
SPIRIT OF STL  CLOUDY    41  34  76 SE3       30.20F
ST CHARLES     CLOUDY    40  34  79 SE8       30.21F

$$
MOZ072>076-082>087-097>100-106>115-211000-
...SOUTH CENTRAL AND SOUTHEAST MISSOURI...

CITY           SKY/WX    TMP DP  RH WIND       PRES   REMARKS
CAPE GIRARDEAU MOCLDY    29  28  96 E3        30.26F
FARMINGTON     CLOUDY    37  34  87 E3        30.23F
POPLAR BLUFF   CLOUDY    39  31  72 CALM      30.24F
WEST PLAINS    CLOUDY    38  34  85 SE6       30.18F

$$



USA.gov is the U.S. government's official web portal to all federal, state and local government web resources and services.